Regional Weather Roundup
Issued by NWS Wilmington, NC

Home | Current Version | Previous Version | Text Only | Print | Product List | Glossary On
Versions: 1 2 3 4 5 6 7 8 9 10 11 12 13 14 15 16 17 18 19 20 21 22 23 24 25 26 27 28 29 30 31 32 33 34 35 36 37 38 39 40 41 42 43 44 45 46 47 48
000
ASUS42 KILM 010410
RWRILM
RWRILM
REGIONAL HOURLY WEATHER ROUNDUP
NATIONAL WEATHER SERVICE WILMINGTON NC
1200 AM EDT WED OCT 01 2014

NOTE: "FAIR" INDICATES FEW OR NO CLOUDS BELOW 12,000 FEET WITH NO
SIGNIFICANT WEATHER AND/OR OBSTRUCTIONS TO VISIBILITY.

...............WFO WILMINGTON COUNTY WARNING AREA...............

......COASTAL NC AND SC COUNTIES......

CITY           SKY/WX    TMP DP  RH WIND       PRES   REMARKS
WILMINGTON     CLEAR     65  63  93 N6        29.90R
SOUTHPORT      CLEAR     66  64  91 NW5       29.90R
N MYRTLE BEACH CLEAR     65  63  93 CALM      29.90S
MYRTLE BEACH   CLEAR     68  63  83 N5        29.90S

......INLAND NC AND SC COUNTIES.......

CITY           SKY/WX    TMP DP  RH WIND       PRES   REMARKS
LUMBERTON      CLEAR     62  61  96 CALM      29.91S
ELIZABETHTOWN  CLEAR     66  66  99 CALM      29.91S
WHITEVILLE     CLEAR     64  63  95 CALM      29.90F
FLORENCE       CLEAR     65  63  93 CALM      29.91S
DARLINGTON     CLEAR     63  59  88 CALM      29.93R

....................REST OF NORTH CAROLINA......................

.........EASTERN NC.........

CITY           SKY/WX    TMP DP  RH WIND       PRES   REMARKS
CAPE HATTERAS  CLEAR     68  66  93 N8        29.87S
JACKSONVILLE   CLEAR     64  61  88 CALM      29.91S
MOREHEAD CITY  CLEAR     65  62  90 N7        29.89R
KENANSVILLE    CLEAR     63  63 100 CALM      29.93R FOG
NEW BERN       CLEAR     67  63  87 CALM      29.91S
ELIZABETH CITY CLEAR     63  62  97 CALM      29.90S

.........CENTRAL NC.........

CITY           SKY/WX    TMP DP  RH WIND       PRES   REMARKS
RALEIGH DURHAM PTCLDY    61  59  93 CALM      29.94R
ROCKY MOUNT    FOG       59  58  96 CALM      29.92S VSB 1/4
ROANOKE RAPIDS NOT AVBL
FAYETTEVILLE   CLEAR     65  63  93 NE3       29.91S
HOFFMAN        FOG       61  59  94 MISG      29.97R VSB 7/8

.........WESTERN NC.........

CITY           SKY/WX    TMP DP  RH WIND       PRES   REMARKS
CHARLOTTE      CLEAR     67  61  81 CALM      29.94R
GREENSBORO     CLEAR     64  62  93 CALM      29.94R
HICKORY        NOT AVBL
BOONE          NOT AVBL
ASHEVILLE      NOT AVBL

.....................REST OF SOUTH CAROLINA.....................

.........EASTERN SC.........

CITY           SKY/WX    TMP DP  RH WIND       PRES   REMARKS
CHARLESTON     CLEAR     69  65  86 CALM      29.91S
BEAUFORT MCAS  CLEAR     68  66  93 CALM      29.91S
HILTON HEAD    NOT AVBL

.........CENTRAL SC.........

CITY           SKY/WX    TMP DP  RH WIND       PRES   REMARKS
COLUMBIA       CLEAR     66  62  87 CALM      29.92R
ORANGEBURG     CLEAR     65  63  93 CALM      29.92R
SUMTER SHAW    CLEAR     66  62  87 CALM      29.90S

.........WESTERN SC.........

CITY           SKY/WX    TMP DP  RH WIND       PRES   REMARKS
GREENVILLE     NOT AVBL
ROCK HILL      CLEAR     61  61 100 CALM      29.94S FOG
ANDERSON       CLEAR     64  63  96 CALM      29.94S
CLEMSON        NOT AVBL
GREENWOOD      CLEAR     64  61  90 CALM      29.95S


...................COASTAL AND OFFSHORE REPORTS..................

................LOCAL PIERS AND NC RESERVE................


STATION/POSITION TIME  SKY/WX   TEMP    WIND        PRES    VSBY
                                AIR SEA DIR/SP/G
                 (UTC)          (F)     (DEG/KT/KT) (MB)    (MI)
JOHNY MRCER PIER 0400            70 78  350/  7/ 11 1011.6S
NC RESRV MASNBRO 0300            68        CALM     1011.0S
OCEAN CREST PIER 0400            69 75  300/  5/  6 1011.3S
SPRINGMAID  PIER 0400            73 76   10/  6/  7 1012.3S


................COASTAL AND OFFSHORE BUOYS................


STATION/POSITION TIME  SKY/WX   TEMP    WIND        PRES    VSBY
                                AIR SEA DIR/SP/G
                 (UTC)          (F)     (DEG/KT/KT) (MB)    (MI)
DIMNDSHOAL 41025 0400            73     350/ 14/ 17 1010.9R
WVE H/P(F/S)=  4/ 6 WND WVE H/P(F/S)=  3/ 6 SWL H/P/D(F/S/D)=  2/ 70/ 8

CAPE LOOKOUT     0300            71      20/  9/ 11 1011.4R
ONSLOW BAY 41036 0400            75 80   20/ 14/ 16 1011.1R
WVE H/P(F/S)=  3/ 5 WND WVE H/P(F/S)=  2/ 5 SWL H/P/D(F/S/D)=  2/ 90/ 7

5 WRITEBCH 41038 0300            71 76  360/  6/  8   N/A
MASONBORO  41110 0400               76                N/A
WVE H/P(F/S)=  2/ 5 WND WVE H/P(F/S)=  2/ 5

WILM HARBR 41108 0400               76                N/A
WVE H/P(F/S)=  2/ 5 WND WVE H/P(F/S)=  2/ 5

27WRITEBCH 41037 0300            72 80   40/ 12/ 14 1011.4R
FRYING PAN 41013 NOT AVBL
SUNST NRSH 41024 0300            74     360/  6/  8 1012.0S
CAPRS NRSH 41029 0300            73     300/  4/  6   N/A
EDISTO     41004 0400            77 81   10/  8/ 10 1011.5F
WVE H/P(F/S)=  3/ 6 WND WVE H/P(F/S)=  2/ 4 SWL H/P/D(F/S/D)=  3/ 6



..........OFFSHORE BUOYS BEYOND 100 NM OFFSHORE...........
.....IN A TRIANGLE---HAT TO BERMUDA TO BAHAMAS TO HAT.....


STATION/POSITION TIME  SKY/WX   TEMP    WIND        PRES    VSBY
                                AIR SEA DIR/SP/G
                 (UTC)          (F)     (DEG/KT/KT) (MB)    (MI)
150E HAT   41001 NOT AVBL
W BERMUDA  41048 0345            78 81  210/ 16/ 17 1010.2F
WVE H/P(F/S)=  3/13 WND WVE H/P(F/S)=  2/ 4 SWL H/P/D(F/S/D)=  2/ 70/13

ATLANTIC S 41049 0252            82 84  240/  4/  6 1012.9
WVE H/P(F/S)=  4/ 6 WND WVE H/P(F/S)=  2/ 3 SWL H/P/D(F/S/D)=  3/210/ 6

E BAHAMAS  41046 0304            83 84  230/ 14/ 16 1014.2
WVE H/P(F/S)=  4/ 5 WND WVE H/P(F/S)=  3/ 5 SWL H/P/D(F/S/D)=  2/ 20/ 8

NE BAHAMAS 41047 0349            82 83  230/ 16/ 19 1011.5R
WVE H/P(F/S)=  4/ 5 WND WVE H/P(F/S)=  3/ 5 SWL H/P/D(F/S/D)=  2/ 90/ 8

120E CANVRL41010 0400            81 84  350/  8/ 10 1010.5S
WVE H/P(F/S)=  2/ 8 WND WVE H/P(F/S)=  2/ 4 SWL H/P/D(F/S/D)=  2/ 60/ 8


END


USA.gov is the U.S. government's official web portal to all federal, state and local government web resources and services.